Ellsworth AFB, SD

5:14 PM MST on November 18, 2017 (GMT -0700)
Ellsworth Air Force Base

Weather History for KRCA - April, 2014

Change the Weather History Date:

Tuesday, April 29, 2014

  Actual Average Record
Temperature  
Mean Temperature 34 °F -  
Max Temperature 37 °F 60 °F 80 °F (2008)
Min Temperature 32 °F 37 °F 24 °F (2005)
Degree Days  
Heating Degree Days 30    
Moisture  
Dew Point 33 °F    
Average Humidity 92    
Maximum Humidity 100    
Minimum Humidity 84    
Precipitation  
Precipitation 0.15 in - - ()
Sea Level Pressure  
Sea Level Pressure 30.13 in    
Wind  
Wind Speed 31 mph (NNW)    
Max Wind Speed 39 mph    
Max Gust Speed 51 mph    
Visibility 6 miles    
Events Rain , Snow    
Averages and records for this station are not official NWS values.
T = Trace of Precipitation, MM = Missing Value Source: NWS Daily Summary

Daily Weather History Graph

Daily Weather History Graph

Search for Another Location

Airport or City:

Trip Planner

Search our weather history database for the weather conditions in past years. The results will help you decide how hot, cold, wet, or windy it might be!

Date:

Astronomy

Apr. 29, 2014 Rise Set
Actual Time 5:46 AM MDT 7:53 PM MDT
Civil Twilight 5:14 AM MDT 8:25 PM MDT
Nautical Twilight 4:36 AM MDT 9:04 PM MDT
Astronomical Twilight 3:53 AM MDT 9:47 PM MDT
Moon 6:06 AM MDT (4/29) 8:36 PM MDT (4/29)
Length of Visible Light 15h 10m
Length of Day
14h 07m
New Moon, 0% of the Moon is Illuminated
Apr 29
New Moon
May 6
First Quarter
May 14
Full
May 21
Last Quarter
May 28
New

Hourly Weather History & Observations

Time (MDT) Temp. Windchill Dew Point Humidity Pressure Visibility Wind Dir Wind Speed Gust Speed Precip Events Conditions
12:31 AM 35.6 °F 21.9 °F 32.0 °F 87% 29.89 in 5.0 mi North 33.4 mph 43.7 mph N/A Rain Rain
12:36 AM 33.8 °F 20.1 °F 32.0 °F 93% 29.89 in 4.0 mi North 29.9 mph 43.7 mph N/A Rain Light Rain
12:58 AM 33.6 °F 20.5 °F 32.5 °F 96% 29.97 in 4.0 mi North 26.5 mph 42.6 mph 0.03 in Snow Light Snow
1:48 AM 33.8 °F 19.4 °F 32.0 °F 93% 29.91 in 6.0 mi NNW 33.4 mph 44.9 mph N/A Snow Light Snow
1:58 AM 33.8 °F 19.4 °F 32.9 °F 96% 29.99 in 4.0 mi NNW 33.4 mph 42.6 mph 0.02 in Snow Light Snow
2:50 AM 32.0 °F 17.6 °F 32.0 °F 100% 29.94 in 5.0 mi NNW 29.9 mph 43.7 mph N/A Snow Light Snow
2:58 AM 33.6 °F 19.6 °F 32.5 °F 96% 30.01 in 6.0 mi NNW 31.1 mph 38.0 mph 0.01 in Snow Light Snow
3:33 AM 32.0 °F 17.2 °F 32.0 °F 100% 29.94 in 5.0 mi NNW 32.2 mph 40.3 mph N/A Snow Light Snow
3:58 AM 33.3 °F 19.1 °F 32.4 °F 96% 30.02 in 2.0 mi NNW 31.1 mph 41.4 mph 0.01 in Snow Light Snow
4:58 AM 33.1 °F 18.4 °F 32.4 °F 97% 30.04 in 2.0 mi NNW 33.4 mph 46.0 mph 0.01 in Snow Light Snow
5:31 AM 32.0 °F 17.2 °F 32.0 °F 100% 29.97 in 0.8 mi NNW 32.2 mph 40.3 mph N/A Snow Light Snow
5:58 AM 32.5 °F 16.7 °F 31.8 °F 97% 30.06 in 0.8 mi NNW 39.1 mph 50.6 mph 0.00 in Snow Light Snow
6:58 AM 32.0 °F 16.5 °F 32.0 °F 100% 30.08 in 1.0 mi NNW 35.7 mph 41.4 mph 0.00 in Snow Light Snow
7:58 AM 32.5 °F 16.9 °F 32.0 °F 98% 30.09 in 1.0 mi NNW 38.0 mph 50.6 mph 0.01 in Snow Light Snow
8:54 AM 32.0 °F 17.9 °F 32.0 °F 100% 30.05 in 1.2 mi North 28.8 mph 35.7 mph N/A Snow Light Snow
8:58 AM 32.9 °F 18.6 °F 32.2 °F 97% 30.14 in 1.2 mi NNW 31.1 mph 41.4 mph 0.00 in Snow Light Snow
9:07 AM 32.0 °F 17.2 °F 32.0 °F 100% 30.05 in 1.5 mi NNW 32.2 mph 43.7 mph N/A Snow Light Snow
9:10 AM 32.0 °F 17.6 °F 32.0 °F 100% 30.06 in 2.0 mi NNW 29.9 mph 43.7 mph N/A Snow Light Snow
9:19 AM 32.0 °F 16.5 °F 32.0 °F 100% 30.05 in - NNW 35.7 mph 44.9 mph N/A Snow Light Snow
9:39 AM 32.0 °F 17.2 °F 32.0 °F 100% 30.06 in - North 32.2 mph 41.4 mph N/A Snow Light Snow
9:58 AM 34.5 °F 20.0 °F 33.4 °F 96% 30.15 in 2.0 mi North 35.7 mph 50.6 mph 0.01 in Snow Light Snow
10:26 AM 35.6 °F 21.9 °F 32.0 °F 87% 30.07 in 10.0 mi NNW 33.4 mph 44.9 mph N/A Rain Light Rain
10:52 AM 35.6 °F 21.3 °F 32.0 °F 87% 30.07 in 10.0 mi NNW 36.8 mph 47.2 mph N/A Snow Light Snow
10:58 AM 35.8 °F 21.8 °F 32.4 °F 87% 30.15 in 5.0 mi NNW 35.7 mph 47.2 mph 0.00 in Snow Light Snow
11:23 AM 35.6 °F 21.1 °F 32.0 °F 87% 30.07 in 3.0 mi NNW 38.0 mph 48.3 mph N/A Snow Light Snow
11:30 AM 35.6 °F 21.1 °F 32.0 °F 87% 30.07 in 2.0 mi NNW 38.0 mph 47.2 mph N/A Snow Light Snow
11:51 AM 35.6 °F 21.1 °F 32.0 °F 87% 30.07 in 2.0 mi NNW 38.0 mph 50.6 mph N/A Snow Light Snow
11:58 AM 36.0 °F 22.2 °F 33.4 °F 91% 30.15 in 2.0 mi NNW 34.5 mph 50.6 mph 0.00 in Snow Light Snow
12:14 PM 35.6 °F 21.5 °F 32.0 °F 87% 30.08 in 1.0 mi NNW 35.7 mph 46.0 mph N/A Snow Light Snow
12:47 PM 35.6 °F 22.5 °F 33.8 °F 93% 30.11 in 2.0 mi NNW 29.9 mph 40.3 mph N/A Snow Light Snow
1:08 PM 35.6 °F 22.3 °F 33.8 °F 93% 30.11 in 3.0 mi North 31.1 mph 41.4 mph N/A Snow Light Snow
1:33 PM 35.6 °F 22.5 °F 33.8 °F 93% 30.12 in 4.0 mi North 29.9 mph 40.3 mph N/A Snow Light Snow
1:58 PM 37.4 °F 24.6 °F 33.8 °F 87% 30.19 in 10.0 mi North 32.2 mph 42.6 mph N/A Rain , Snow Light Rain
2:03 PM 37.4 °F 24.4 °F 33.8 °F 87% 30.12 in 4.0 mi North 33.4 mph 42.6 mph N/A Rain , Snow Light Rain
2:20 PM 35.6 °F 22.7 °F 33.8 °F 93% 30.20 in 8.0 mi North 28.8 mph 40.3 mph N/A Rain , Snow Light Rain
2:34 PM 37.4 °F 24.8 °F 35.6 °F 93% 30.21 in 9.0 mi NNW 31.1 mph 38.0 mph N/A Rain , Snow Light Rain
2:53 PM 37.4 °F 24.6 °F 35.6 °F 93% 30.12 in 5.0 mi North 32.2 mph 38.0 mph N/A Rain , Snow Light Rain
2:58 PM 36.7 °F 24.2 °F 34.9 °F 93% 30.22 in 5.0 mi North 28.8 mph 38.0 mph 0.01 in Rain , Snow Light Rain
3:13 PM 37.4 °F 24.8 °F 35.6 °F 93% 30.12 in 7.0 mi North 31.1 mph 41.4 mph N/A Rain Light Rain
3:44 PM 35.6 °F 23.0 °F 33.8 °F 93% 30.13 in 10.0 mi North 27.6 mph 42.6 mph N/A Rain Light Rain
3:58 PM 36.1 °F 23.7 °F 34.3 °F 93% 30.24 in 10.0 mi North 27.6 mph 36.8 mph 0.01 in   Light Drizzle
4:10 PM 37.4 °F 25.6 °F 33.8 °F 87% 30.14 in 10.0 mi North 26.5 mph 42.6 mph N/A Rain Light Rain
4:13 PM 37.4 °F 25.4 °F 33.8 °F 87% 30.14 in 10.0 mi North 27.6 mph 42.6 mph N/A Rain Light Rain
4:24 PM 37.4 °F 24.8 °F 35.6 °F 93% 30.14 in 10.0 mi North 31.1 mph 38.0 mph N/A   Mostly Cloudy
4:33 PM 37.4 °F 25.2 °F 33.8 °F 87% 30.14 in 10.0 mi North 28.8 mph 36.8 mph N/A Rain Light Rain
4:41 PM 37.4 °F 25.4 °F 33.8 °F 87% 30.14 in 10.0 mi North 27.6 mph 36.8 mph N/A   Light Drizzle
4:46 PM 37.4 °F 25.0 °F 35.6 °F 93% 30.14 in 10.0 mi North 29.9 mph 39.1 mph N/A   Overcast
4:48 PM 37.4 °F 24.8 °F 33.8 °F 87% 30.14 in 10.0 mi North 31.1 mph 39.1 mph N/A Rain Light Rain
4:58 PM 37.9 °F 25.7 °F 34.5 °F 87% 30.24 in 10.0 mi North 29.9 mph 42.6 mph 0.00 in   Light Drizzle
5:01 PM 37.4 °F 25.0 °F 33.8 °F 87% 30.15 in 9.0 mi North 29.9 mph 42.6 mph N/A Rain Rain
5:06 PM 35.6 °F 22.1 °F 33.8 °F 93% 30.15 in 8.0 mi North 32.2 mph 40.3 mph N/A Rain Light Rain
5:19 PM 35.6 °F 22.7 °F 33.8 °F 93% 30.14 in 6.0 mi North 28.8 mph 39.1 mph N/A Rain Light Rain
5:27 PM 35.6 °F 23.2 °F 33.8 °F 93% 30.15 in 4.0 mi North 26.5 mph 35.7 mph N/A Rain Rain
5:39 PM 35.6 °F 23.0 °F 33.8 °F 93% 30.15 in 5.0 mi North 27.6 mph 35.7 mph N/A Rain Light Rain
5:50 PM 35.6 °F 22.7 °F 33.8 °F 93% 30.16 in 4.0 mi North 28.8 mph 35.7 mph N/A Rain Light Rain
5:58 PM 35.6 °F 22.7 °F 33.8 °F 93% 30.25 in 5.0 mi North 28.8 mph 39.1 mph 0.03 in Rain , Snow Light Rain
6:16 PM 35.6 °F 22.7 °F 33.8 °F 93% 30.15 in 5.0 mi North 28.8 mph 38.0 mph N/A Rain , Snow Light Rain
6:36 PM 35.6 °F 23.4 °F 32.0 °F 87% 30.17 in 10.0 mi North 25.3 mph 34.5 mph N/A   Light Drizzle
6:41 PM 35.6 °F 23.7 °F 32.0 °F 87% 30.17 in 10.0 mi North 24.2 mph 31.1 mph N/A   Light Drizzle
6:55 PM 35.6 °F 23.2 °F 32.0 °F 87% 30.18 in 10.0 mi North 26.5 mph 33.4 mph N/A   Overcast
6:58 PM 35.6 °F 23.4 °F 32.0 °F 87% 30.18 in 10.0 mi North 25.3 mph 33.4 mph N/A   Overcast
6:59 PM 35.6 °F 23.4 °F 32.0 °F 87% 30.27 in 10.0 mi North 25.3 mph 33.4 mph 0.00 in   Overcast
7:04 PM 35.6 °F 24.0 °F 32.0 °F 87% 30.19 in 10.0 mi North 23.0 mph 33.4 mph N/A   Overcast
7:35 PM 35.6 °F 23.7 °F 32.0 °F 87% 30.20 in 10.0 mi North 24.2 mph 31.1 mph N/A   Light Drizzle
7:58 PM 34.9 °F 22.5 °F 32.7 °F 92% 30.30 in 10.0 mi NNW 25.3 mph 28.8 mph 0.00 in   Overcast
8:02 PM 35.6 °F 24.2 °F 32.0 °F 87% 30.20 in 10.0 mi North 21.9 mph 31.1 mph N/A   Overcast
8:03 PM 35.6 °F 24.5 °F 32.0 °F 87% 30.20 in 10.0 mi NNW 20.7 mph 31.1 mph N/A   Overcast
8:58 PM 35.1 °F 23.0 °F 32.4 °F 90% 30.31 in 10.0 mi NNW 24.2 mph 31.1 mph 0.00 in   Mostly Cloudy
9:08 PM 35.6 °F 23.4 °F 32.0 °F 87% 30.22 in 10.0 mi NNW 25.3 mph 31.1 mph N/A   Mostly Cloudy
9:11 PM 35.6 °F 23.4 °F 32.0 °F 87% 30.22 in 10.0 mi NNW 25.3 mph 31.1 mph N/A Rain Light Rain
9:21 PM 35.6 °F 23.2 °F 32.0 °F 87% 30.23 in 10.0 mi NNW 26.5 mph 32.2 mph N/A   Overcast
9:58 PM 34.5 °F 22.5 °F 31.8 °F 90% 30.32 in 10.0 mi NNW 23.0 mph 31.1 mph 0.00 in   Scattered Clouds
10:58 PM 34.9 °F 22.0 °F 31.5 °F 87% 30.32 in 10.0 mi NNW 27.6 mph 38.0 mph N/A   Partly Cloudy
11:58 PM 35.1 °F 22.0 °F 30.7 °F 84% 30.31 in 10.0 mi NNW 28.8 mph 36.8 mph N/A   Overcast